Regional Weather Roundup
Issued by NWS

Home | Current Version | Previous Version | Text Only | Print | Product List | Glossary On
Versions: 1 2 3 4 5 6 7 8 9 10 11 12 13 14 15 16 17 18 19 20 21 22 23 24 25 26 27 28 29 30 31 32 33 34 35 36 37 38 39 40 41 42 43 44 45 46 47 48 49 50
000
ASUS44 KLUB 270101
RWRTX
WEST TEXAS WEATHER ROUNDUP
NATIONAL WEATHER SERVICE LUBBOCK TX
700 PM CST THU FEB 26 2015

NOTE: "FAIR" INDICATES FEW OR NO CLOUDS BELOW 12,000 FEET WITH NO
SIGNIFICANT WEATHER AND/OR OBSTRUCTIONS TO VISIBILITY.

TXZ004-006>008-010-012-014-016-OKZ002-270200-
TEXAS PANHANDLE/OKLAHOMA PANHANDLE

CITY           SKY/WX    TMP DP  RH WIND       PRES   REMARKS
AMARILLO       CLOUDY    24   9  52 E13       30.27R WCI  12
BORGER         CLOUDY    25   6  44 NE12      30.30S WCI  14
CANADIAN       CLOUDY    26   5  40 NE7       30.36R WCI  19
DALHART        FLURRIES  22  13  68 E13       30.25R WCI  10
DUMAS          CLOUDY    21  10  63 NE13      30.26R WCI   9
GUYMON         CLOUDY    22  11  62 NE10      30.32R WCI  11
$$

TXZ026-029-035-045-048-270200-
SOUTHERN PANHANDLE/SOUTH PLAINS/ROLLING PLAINS

CITY           SKY/WX    TMP DP  RH WIND       PRES   REMARKS
CHILDRESS      CLOUDY    29   2  31 NE10      30.37R WCI  20
SEMINOLE       CLOUDY    28  18  64 E10       30.25R WCI  19
LUBBOCK        CLOUDY    24  16  71 NE13      30.26R WCI  12
$$

TXZ052-054-060>062-072-078-127-140-154-169-270200-
PERMIAN BASIN/CONCHO VALLEY/BIG COUNTRY/EDWARDS PLATEAU

CITY           SKY/WX    TMP DP  RH WIND       PRES   REMARKS
ABILENE        CLOUDY    28  16  60 NE9       30.33R WCI  19
JUNCTION       CLOUDY    31  23  72 NE15G22   30.26R WCI  20
MIDLAND        CLOUDY    30  17  58 NE17      30.25R WCI  18
ODESSA         CLOUDY    29  17  61 E12       30.24R WCI  19
SAN ANGELO     CLOUDY    30  20  66 NE17      30.28R WCI  18
SONORA         CLOUDY    30  23  74 NE17      30.27R WCI  18
WINK           CLOUDY    32  19  58 E15       30.22S WCI  22
$$

TXZ055-058-074-075-080-082-270200-
FAR WEST/SOUTHWEST MOUNTAINS/TRANS PECOS

CITY           SKY/WX    TMP DP  RH WIND       PRES   REMARKS
DRYDEN           N/A     39  26  59 N17G23    30.19R WCI  30
EL PASO        FAIR      45  28  51 E18G28    29.96S
FORT STOCKTON  CLOUDY    31  23  72 E14       30.21R WCI  21
GUADALUPE PASS FRZ RAIN  24  23  96 NE39      29.99F VSB 1/2 WCI   5
MARFA          CLOUDY    30  27  86 NE18G24   30.08F WCI  18
PECOS          CLOUDY    34  23  64 NE13      30.23R WCI  25
$$

TXZ014-016-019-021>030-083-270200
TEXAS TECH WEST TEXAS MESONET/TEXAS PANHANDLE/NORTHERN SOUTH PLAINS

CITY           SKY/WX    TMP DP  RH WIND       PRES   REMARKS
ABERNATHY 5ENE   N/A     23  16  75 NE13      30.26S WCI  11
AMARILLO 9NNE    N/A     24  10  53 NE9       30.27R WCI  15
AMARILLO 7SSE    N/A     25  10  54 NE10      30.26R WCI  14
AMHERST 1NE      N/A     23  19  83 E9        30.25R WCI  13
BOOTLEG 11WNW    N/A     19  16  86 E10       30.22R WCI   8
CANADIAN 6E      N/A     23   4  43 NE10      30.35R WCI  13
CAPROCK CYN SP   N/A     27   9  46 NE7       30.31F WCI  20
CHILDRESS 2NNE   N/A     28   2  32 NE10      30.36R WCI  19
CLARENDON 2WSW   N/A     26   5  42 NE13      30.31S WCI  14
CLAUDE 12SW      N/A     24   8  50 NE15      30.26S WCI  11
DIMMITT 2NE      N/A     23  17  78 E8        30.23R WCI  14
FLOYDADA 2NNE    N/A     22  13  67 NE9       30.26S WCI  11
FRIONA 2NE       N/A     22  18  84 E6        30.24R WCI  14
GOODLETT 3W      N/A     29   2  31 NE14      30.37R WCI  19
HART 3N          N/A     23  18  81 E8        30.24R WCI  14
HEREFORD 2NW     N/A     24  17  73 E5        30.23R WCI  18
MCLEAN 1E        N/A     24   4  43 NE12      30.31R WCI  12
MEMPHIS 1NE      N/A     28   3  33 N14       30.36R WCI  17
MULESHOE 2SSW    N/A     23  20  89 E10       30.24R WCI  12
OLTON 6S         N/A     23  17  76 NE10      30.24R WCI  13
PALO DURO SP     N/A     26   9  48 E6        30.27R WCI  19
PAMPA 2E         N/A     21   5  48 NE12      30.29S WCI  10
PLAINVIEW 1S     N/A     23  15  73 E7        30.26R WCI  14
SILVERTON 7ESE   N/A     24  12  61 E9        30.28S WCI  14
TULIA 2ENE       N/A     24  17  74 E9        30.25R WCI  15
TURKEY 2WSW      N/A     28   6  38 NE12      30.31S WCI  18
UMBARGER 3NNE    N/A     24  14  64 E9        30.24R WCI  15
$$

TXZ033>036-039>041-045>048-270200
TEXAS TECH WEST TEXAS MESONET/SOUTH PLAINS

CITY           SKY/WX    TMP DP  RH WIND       PRES   REMARKS
AIKEN 3WSW       N/A     23  15  71 E7        30.28R WCI  14
ANDREWS 2NE      N/A     28  17  61 NE9       30.26R WCI  20
ANTON 6SSW       N/A     23  20  87 NE14      30.26R WCI  11
BROWNFIELD 2S    N/A     25  17  70 NE10      30.25R WCI  15
DENVR CTY 7WNW   N/A     25  17  71 NE12      30.23R WCI  14
GAIL 2ESE        N/A     28  13  54 NE12      30.27S WCI  18
LAMESA 2SE       N/A     27  14  59 NE12      30.26R WCI  16
LEVELLAND 4S     N/A     24  17  74 NE14      30.24R WCI  12
LUBBOCK 3WNW     N/A     25  14  64 NE8       30.27R WCI  16
MORTON 1ENE      N/A     22  19  91 NE13      30.23R WCI  10
ODONNELL 1N      N/A     26  12  55 NE15      30.26R WCI  13
PLAINS 3N        N/A     24  19  79 NE12      30.23R WCI  13
RALLS 1SE        N/A     24  10  56 NE16      30.27F WCI  10
REESE CENTER     N/A     24  16  71 NE14      30.26R WCI  11
SEAGRAVES 1SW    N/A     26  15  63 NE10      30.25R WCI  16
SEMINOLE 2NNE    N/A     27  16  63 NE13      30.24R WCI  16
SLATON 2NE       N/A     25  13  61 NE10      30.27R WCI  15
SNYDER 3E        N/A     28  14  55 NE10      30.28F WCI  18
SUNDOWN 8SW      N/A     24  17  74 NE9       30.23R WCI  14
TAHOKA 3NNE      N/A     26  13  57 NE13      30.26R WCI  15
WOLFFORTH 6SSW   N/A     26  17  68 NE13      30.26R WCI  15
$$

TXZ031-032-036>038-042>044-270200-
TEXAS TECH WEST TEXAS MESONET/ROLLING PLAINS

CITY           SKY/WX    TMP DP  RH WIND       PRES   REMARKS
ASPERMONT 3NE    N/A     29   9  43 N12       30.35R WCI  19
FLUVANNA 3WNW    N/A     26  13  56 NE13      30.27S WCI  15
GRAHAM 5SSW      N/A     26  11  54 NE13      30.27R WCI  15
GUTHRIE 10WSW    N/A     28  10  45 NE10      30.34R WCI  19
HASKELL 1NW      N/A     29  13  52 N15       30.35R WCI  18
JAYTON 1SSE      N/A     28  11  49 NE8       30.33R WCI  20
KNOX CITY 3NW    N/A     31   6  35 N13       30.37R WCI  21
LK A HENRY 1NW   N/A    N/A N/A N/A NE17      30.29S
NORTHFIELD 1S    N/A     29   5  35 NE7       30.35R WCI  22
ODELL 4ENE       N/A     29   3  32 N14       30.40R WCI  19
PADUCAH 10SW     N/A     28   7  41 NE12      30.35R WCI  18
POST 1NE         N/A     28  12  51 NE13      30.28S WCI  17
RRING SPRGS 3N   N/A     25  13  62 NE10      30.30S WCI  15
SEYMOUR 3NW      N/A     30   6  36 N15       30.38R WCI  19
SPUR 1W          N/A     27  12  52 NE12      30.30S WCI  17
WEINERT 2NNE     N/A     30  10  43 NE10      30.36R WCI  21
WHITE RVR 6NE    N/A     26  11  54 NE14      30.28S WCI  14
$$

TXZ052-054-060>062-072-078-127-140-154-169-270200-
TEXAS TECH WEST TEXAS MESONET/PERMIAN BASIN/
CONCHO VALLEY/BIG COUNTRY/EDWARDS PLATEAU

CITY           SKY/WX    TMP DP  RH WIND       PRES   REMARKS
COYANOSA 2N      N/A     33  21  61 NE15      30.23S WCI  22
JUNCTION 1SSW    N/A     31  23  72 NE12      30.27R WCI  22
MERTZON 3NNE     N/A     28  19  69 NE10      30.28S WCI  18
SAN ANGELO 7NW   N/A     29  17  61 NE7       30.29S WCI  22
STRLNG CT 4WSW   N/A     27  16  62 N12       30.28R WCI  17
ST LAWRNCE 5SW   N/A     26  18  71 NE14      30.26R WCI  15
SWEETWATR 11SW   N/A     26  16  65 NE17      30.28S WCI  14
WALL 1E          N/A     28  20  70 NE15      30.31R WCI  16
$$

TXZ055-058-074-075-080-082-270200-
TEXAS TECH WEST TEXAS MESONET/FAR WEST/SOUTHWEST MOUNTAINS/TRANS PECOS

CITY           SKY/WX    TMP DP  RH WIND       PRES   REMARKS
$$


USA.gov is the U.S. government's official web portal to all federal, state and local government web resources and services.